Location: Forestville
(38.4740°N, 122.8890°W)
Time: 03:48:39
(UTC-08:00)

Amateur Radio Satellites - All Passes

Search period start: 09 February 2016 03:18
Search period end: 10 February 2016 03:18
Location: Forestville, 38.4740°N, 122.8890°W

Satellite Date Start Highest point End Downlink Frequencies (MHz)
Time Altitude Azimuth
Gurwin Techsat 1B 09 Feb 03:20:49 03:25:33 33° 292° (WNW) 03:30:15 435.225
BEESAT 2 09 Feb 03:24:46 03:28:26 35° 245° (WSW) 03:32:03 435.950
Cosmos 2491 09 Feb 03:27:12 03:35:30 51° 271° (W) 03:43:51 435.465 / 435.565
AIST 2 09 Feb 03:34:51 03:38:25 27° 51° (NE) 03:41:57 435.215
PHONESAT 2.4 09 Feb 03:52:19 03:55:34 57° 2° (N) 03:58:48 2401.200-2431.200
SO-50 09 Feb 03:54:06 03:56:49 15° 108° (ESE) 03:59:33 436.795
ITAMSAT 1 09 Feb 04:04:32 04:08:44 25° 294° (WNW) 04:12:56 435.822/435.867
HORYU 2 09 Feb 04:06:31 04:10:30 32° 98° (E) 04:14:30 437.375
STARS 09 Feb 04:09:22 04:12:58 24° 264° (W) 04:16:34 437.465
MOZHAYETS 4 09 Feb 04:10:23 04:14:35 37° 262° (W) 04:18:50
AO-7 09 Feb 04:10:25 04:18:47 78° 107° (ESE) 04:27:04 29.400- 29.500
YUBILEINY 09 Feb 04:14:44 04:23:17 56° 282° (WNW) 04:31:57 435.215
CUSAT 1 09 Feb 04:17:55 04:20:47 12° 301° (WNW) 04:23:41 437.405
Cosmos 2504 09 Feb 04:26:39 04:34:29 43° 87° (E) 04:42:37 435.465 / 435.565
M-CUBED/EXP-1 PRIME 09 Feb 04:41:11 04:44:33 75° 289° (WNW) 04:48:07 437.505
DANDE 09 Feb 04:42:40 04:46:28 14° 302° (WNW) 04:50:26 436.750
CUBESAT XI-V 09 Feb 04:48:10 04:52:43 53° 74° (ENE) 04:57:18 437.345
AUBIESAT-1 09 Feb 04:51:45 04:55:10 67° 289° (WNW) 04:58:46 437.475
STRAND 1 09 Feb 05:10:35 05:12:59 13° 61° (ENE) 05:15:24 437.568
AIST 2 09 Feb 05:13:24 05:16:49 26° 247° (WSW) 05:20:13 435.215
PHONESAT 2.4 09 Feb 05:29:39 05:32:56 74° 198° (SSW) 05:36:10 2401.200-2431.200
SO-50 09 Feb 05:31:55 05:36:46 63° 304° (WNW) 05:41:41 436.795
CUTE-I 09 Feb 05:36:00 05:40:09 22° 94° (E) 05:44:16 437.470
HORYU 2 09 Feb 05:43:28 05:46:52 22° 293° (WNW) 05:50:17 437.375
Cubesat XI-IV 09 Feb 05:49:04 05:53:44 30° 96° (E) 05:58:23 437.490
AO-7 09 Feb 06:04:31 06:10:41 24° 305° (NW) 06:16:50 29.400- 29.500
LilacSat-2 09 Feb 06:04:37 06:08:02 32° 97° (E) 06:11:28 437.200
Cosmos 2504 09 Feb 06:19:53 06:27:48 41° 286° (WNW) 06:36:05 435.465 / 435.565
CUBESAT XI-V 09 Feb 06:27:54 06:30:24 14° 269° (W) 06:32:55 437.345
BRITE-PL 09 Feb 06:38:44 06:43:18 47° 98° (E) 06:47:32 437.365/2234.400
PRISM 09 Feb 06:44:59 06:48:39 31° 71° (ENE) 06:52:22 437.425
STRAND 1 09 Feb 06:46:25 06:51:31 73° 258° (WSW) 06:56:39 437.568
PHONESAT 2.4 09 Feb 07:07:39 07:09:51 17° 213° (SSW) 07:12:02 2401.200-2431.200
CUTE-I 09 Feb 07:15:16 07:20:21 43° 290° (WNW) 07:25:24 437.470
HO-68 09 Feb 07:15:51 07:20:47 19° 92° (E) 07:25:40 435.675
SO-50 09 Feb 07:17:03 07:18:16 11° 323° (NW) 07:19:29 436.795
CUTE 1.7 + AOD 2 09 Feb 07:26:15 07:28:29 14° 92° (E) 07:30:43 437.475
Cubesat XI-IV 09 Feb 07:29:00 07:33:46 33° 292° (WNW) 07:38:31 437.490
DOVE 4 09 Feb 07:33:20 07:37:22 42° 98° (E) 07:41:17 437.250
SEEDS 09 Feb 07:34:17 07:36:08 12° 91° (E) 07:37:58 437.485
LilacSat-2 09 Feb 07:39:50 07:42:05 15° 292° (WNW) 07:44:20 437.200
GONETS M04 09 Feb 07:45:47 07:52:10 24° 81° (E) 07:58:34
GOMX 1 09 Feb 07:48:27 07:52:51 59° 285° (WNW) 07:56:59 467.674
AAUSAT CUBESAT 2 09 Feb 07:51:18 07:52:37 11° 91° (E) 07:53:57 437.432
CANX-2 09 Feb 08:09:35 08:13:47 51° 100° (E) 08:17:57 2200.000
O/OREOS (USA 219) 09 Feb 08:16:41 08:21:09 79° 292° (WNW) 08:25:40 437.305
BRITE-PL 09 Feb 08:18:26 08:21:18 16° 296° (WNW) 08:24:04 437.365/2234.400
PRISM 09 Feb 08:21:02 08:24:02 19° 265° (W) 08:27:03 437.425
CINEMA 3 09 Feb 08:32:42 08:36:50 67° 101° (E) 08:41:00 145.822/145.860
CUBEBUG 2 09 Feb 08:44:30 08:48:13 30° 97° (E) 08:51:58 437.445
UWE-3 09 Feb 08:46:58 08:50:21 23° 95° (E) 08:53:46 435.000/436.395/437.385
Oscar 11 09 Feb 08:49:57 08:53:25 23° 95° (E) 08:56:52 145.826/435.025
COMPASS 1 09 Feb 08:54:54 08:59:09 83° 102° (ESE) 09:03:22 437.405
UNISAT 6 09 Feb 09:00:22 09:03:43 22° 68° (ENE) 09:07:01 437.425
CUTE 1.7 + AOD 2 09 Feb 09:00:27 09:04:33 45° 287° (WNW) 09:08:39 437.475
HO-68 09 Feb 09:01:53 09:09:04 72° 289° (WNW) 09:16:12 435.675
SEEDS 09 Feb 09:07:59 09:12:07 50° 286° (WNW) 09:16:13 437.485
DELFI C3 09 Feb 09:09:08 09:12:03 19° 94° (E) 09:14:58 145.870
DOVE 4 09 Feb 09:12:21 09:14:42 15° 295° (WNW) 09:17:01 437.250
JUGNU 09 Feb 09:18:54 09:20:20 11° 174° (S) 09:21:45 437.505
AAUSAT CUBESAT 2 09 Feb 09:24:20 09:28:26 53° 286° (WNW) 09:32:32 437.432
Cosmos 2499 09 Feb 09:29:13 09:37:26 51° 89° (E) 09:45:55 435.465 / 435.565
GONETS M04 09 Feb 09:39:31 09:48:07 68° 279° (W) 09:56:50
ZACube-1 09 Feb 09:41:55 09:46:07 71° 101° (E) 09:50:25 437.345
ANTELSAT 09 Feb 09:44:18 09:48:36 70° 76° (ENE) 09:52:52 437.575/2403.000
CANX-2 09 Feb 09:47:05 09:49:11 14° 295° (WNW) 09:51:19 2200.000
FUNcube-1 09 Feb 09:51:19 09:55:33 87° 106° (ESE) 09:59:50 145.935
TIGRISAT 09 Feb 09:51:22 09:55:42 80° 76° (ENE) 10:00:00 435.000
POPSAT HIP 1 09 Feb 09:51:45 09:54:45 19° 67° (ENE) 09:57:45 437.405
NANOSAT C BR1 09 Feb 09:56:38 09:59:49 21° 68° (ENE) 10:03:00 145.865
DUCHIFAT 1 09 Feb 09:58:21 10:01:32 21° 68° (ENE) 10:04:41 145.980
QB50P1 09 Feb 10:03:51 10:07:22 26° 70° (ENE) 10:10:54 145.935-145.965
HUMSAT D 09 Feb 10:06:16 10:10:09 36° 98° (E) 10:14:02 437.325/437.525
PCSat 09 Feb 10:09:19 10:13:56 29° 108° (ESE) 10:18:35 145.827
CUBEBUG 2 09 Feb 10:21:34 10:24:40 20° 291° (WNW) 10:27:48 437.445
AIST 1 09 Feb 10:23:11 10:27:21 44° 93° (E) 10:31:33
UWE-3 09 Feb 10:23:15 10:26:47 26° 290° (WNW) 10:30:21 435.000/436.395/437.385
Oscar 11 09 Feb 10:25:47 10:29:31 28° 290° (WNW) 10:33:15 145.826/435.025
ESTCUBE 1 09 Feb 10:29:34 10:31:59 14° 92° (E) 10:34:24 437.505/2401.250
AO-85 09 Feb 10:31:45 10:37:04 82° 119° (ESE) 10:42:36 145.980
UNISAT 6 09 Feb 10:36:30 10:40:17 29° 263° (W) 10:44:02 437.425
DX 1 09 Feb 10:37:06 10:39:41 15° 93° (E) 10:42:13 434.975-435.025
DELFI C3 09 Feb 10:43:27 10:46:59 29° 289° (WNW) 10:50:30 145.870
HO-68 09 Feb 10:52:25 10:55:32 13° 307° (NW) 10:58:38 435.675
POLYITAN 1 09 Feb 10:55:23 10:59:38 76° 259° (W) 11:03:51 437.675
QB50P2 09 Feb 10:56:04 11:00:18 73° 259° (W) 11:04:33 145.880/145.840
RS-15 09 Feb 10:57:21 11:07:44 49° 109° (ESE) 11:18:37 29.354- 29.394
BUGSAT 1 09 Feb 11:01:21 11:05:30 57° 74° (ENE) 11:09:36 437.445
50 SAT 09 Feb 11:02:44 11:06:13 34° 98° (E) 11:09:42 437.505
JUGNU 09 Feb 11:06:44 11:08:25 11° 185° (S) 11:10:06 437.505
Cosmos 2499 09 Feb 11:23:01 11:30:46 35° 288° (WNW) 11:38:45 435.465 / 435.565
JAS-2 09 Feb 11:24:26 11:28:39 16° 60° (ENE) 11:32:41 435.910
POPSAT HIP 1 09 Feb 11:26:27 11:30:18 33° 262° (W) 11:34:10 437.405
VELOX 1 09 Feb 11:28:17 11:32:38 55° 101° (E) 11:36:56 145.980
CUSAT 1 09 Feb 11:30:08 11:32:17 12° 58° (ENE) 11:34:15 437.405
NANOSAT C BR1 09 Feb 11:31:39 11:35:23 30° 263° (W) 11:39:07 145.865
DUCHIFAT 1 09 Feb 11:33:20 11:37:03 30° 263° (W) 11:40:46 145.980
QB50P1 09 Feb 11:39:39 11:43:06 24° 264° (W) 11:46:33 145.935-145.965
HUMSAT D 09 Feb 11:42:46 11:45:30 17° 293° (WNW) 11:48:16 437.325/437.525
GONETS M04 09 Feb 11:43:51 11:46:46 12° 301° (WNW) 11:49:42
AISAT 09 Feb 11:44:49 11:49:15 90° 343° (NNW) 11:53:38 437.250
PCSat 09 Feb 11:52:13 11:57:11 36° 305° (NW) 12:02:12 145.827
DANDE 09 Feb 11:57:36 12:01:37 16° 59° (ENE) 12:05:09 436.750
UKube-1 09 Feb 12:00:40 12:04:58 68° 286° (WNW) 12:09:15 .
AIST 1 09 Feb 12:02:43 12:05:12 15° 289° (WNW) 12:07:41
ESTCUBE 1 09 Feb 12:04:40 12:09:04 50° 287° (WNW) 12:13:26 437.505/2401.250
CUBEBUG 1 09 Feb 12:06:09 12:10:29 64° 285° (WNW) 12:14:46 437.445
SPROUT 09 Feb 12:10:54 12:15:02 48° 99° (E) 12:19:09 437.525
DX 1 09 Feb 12:11:56 12:16:04 42° 288° (WNW) 12:20:09 434.975-435.025
AO-85 09 Feb 12:14:36 12:18:17 18° 318° (NW) 12:22:00 145.980
TISAT 1 09 Feb 12:22:30 12:25:48 22° 95° (E) 12:29:04 437.305
SO-50 09 Feb 12:26:28 12:28:27 12° 39° (NE) 12:30:25 436.795
Oscar 19 09 Feb 12:33:10 12:38:16 59° 73° (ENE) 12:43:22 437.125/150
YUBILEINY 09 Feb 12:33:11 12:36:44 13° 59° (ENE) 12:40:16 435.215
50 SAT 09 Feb 12:37:43 12:39:57 15° 293° (WNW) 12:42:12 437.505
BUGSAT 1 09 Feb 12:40:20 12:41:11 11° 269° (W) 12:42:02 437.445
SRMSAT 09 Feb 12:41:22 12:43:27 12° 181° (S) 12:45:32 437.500
Gurwin Techsat 1B 09 Feb 13:00:35 13:05:30 40° 70° (ENE) 13:10:26 435.225
JAS-2 09 Feb 13:05:03 13:12:48 84° 75° (ENE) 13:19:57 435.910
VELOX 1 09 Feb 13:06:30 13:08:37 13° 296° (WNW) 13:10:44 145.980
RS-15 09 Feb 13:09:23 13:20:06 50° 312° (NW) 13:31:29 29.354- 29.394
CUSAT 1 09 Feb 13:09:57 13:15:48 75° 263° (W) 13:20:07 437.405
AO-7 09 Feb 13:18:26 13:24:03 20° 53° (NE) 13:29:39 29.400- 29.500
DANDE 09 Feb 13:38:49 13:45:52 79° 264° (W) 13:51:08 436.750
ITAMSAT 1 09 Feb 13:41:04 13:46:04 51° 72° (ENE) 13:51:05 435.822/435.867
SWISSCUBE 09 Feb 13:44:42 13:49:07 36° 98° (E) 13:53:32 437.505
SPROUT 09 Feb 13:48:24 13:50:36 14° 295° (WNW) 13:52:47 437.525
TISAT 1 09 Feb 13:57:54 14:01:26 27° 290° (WNW) 14:04:55 437.305
SO-50 09 Feb 14:04:58 14:09:47 79° 59° (ENE) 14:14:25 436.795
Oscar 19 09 Feb 14:15:01 14:17:56 15° 268° (W) 14:20:53 437.125/150
ITUPSAT 1 09 Feb 14:21:01 14:25:52 78° 103° (ESE) 14:30:40 437.325
Cosmos 2504 09 Feb 14:23:42 14:27:33 13° 59° (ENE) 14:31:17 435.465 / 435.565
YUBILEINY 09 Feb 14:26:27 14:35:19 70° 81° (E) 14:44:04 435.215
BEESAT 09 Feb 14:29:47 14:34:36 84° 285° (WNW) 14:39:23 436.000
Cosmos 2491 09 Feb 14:30:09 14:38:01 40° 87° (E) 14:45:55 435.465 / 435.565
KKS-1 09 Feb 14:40:19 14:43:01 16° 93° (E) 14:45:42 437.445
Gurwin Techsat 1B 09 Feb 14:41:21 14:45:33 24° 266° (W) 14:49:46 435.225
ISS 09 Feb 14:48:58 14:51:08 17° 130° (SE) 14:53:20 145.825
JAS-2 09 Feb 14:53:30 14:58:17 18° 269° (W) 15:02:56 435.910
HORYU 2 09 Feb 15:03:29 15:07:06 25° 68° (ENE) 15:10:44 437.375
AO-7 09 Feb 15:07:19 15:15:43 90° 72° (ENE) 15:24:08 29.400- 29.500
ITAMSAT 1 09 Feb 15:22:21 15:25:48 18° 267° (W) 15:29:16 435.822/435.867
SWISSCUBE 09 Feb 15:22:58 15:26:42 23° 293° (WNW) 15:30:25 437.505
M-CUBED/EXP-1 PRIME 09 Feb 15:27:06 15:30:50 73° 253° (WSW) 15:34:19 437.505
RS-15 09 Feb 15:28:34 15:36:31 20° 344° (NNW) 15:44:46 29.354- 29.394
AUBIESAT-1 09 Feb 15:37:15 15:40:56 67° 254° (WSW) 15:44:24 437.475
SO-50 09 Feb 15:48:50 15:49:31 10° 255° (WSW) 15:50:12 436.795
STARS 09 Feb 15:59:14 16:03:35 66° 101° (E) 16:07:55 437.465
ITUPSAT 1 09 Feb 16:01:29 16:03:01 11° 299° (WNW) 16:04:33 437.325
MOZHAYETS 4 09 Feb 16:06:20 16:10:55 56° 100° (E) 16:15:28
Cosmos 2504 09 Feb 16:14:01 16:22:40 74° 82° (E) 16:30:41 435.465 / 435.565
KKS-1 09 Feb 16:15:35 16:19:47 42° 288° (WNW) 16:23:57 437.445
ISS 09 Feb 16:24:13 16:27:21 44° 326° (NW) 16:30:29 145.825
YUBILEINY 09 Feb 16:24:47 16:31:11 23° 279° (W) 16:37:35 435.215
Cosmos 2491 09 Feb 16:26:39 16:34:44 42° 285° (WNW) 16:42:53 435.465 / 435.565
HORYU 2 09 Feb 16:39:50 16:43:34 27° 264° (W) 16:47:19 437.375
LilacSat-2 09 Feb 16:46:37 16:48:44 14° 67° (ENE) 16:50:50 437.200
CUBESAT XI-V 09 Feb 16:47:40 16:50:21 15° 91° (E) 16:53:01 437.345
O/OREOS (USA 219) 09 Feb 16:50:07 16:52:54 16° 56° (NE) 16:55:40 437.305
BEESAT 3 09 Feb 16:51:38 16:55:26 45° 116° (ESE) 16:59:15 437.485
CUTE-I 09 Feb 16:56:18 17:00:57 32° 68° (ENE) 17:05:38 437.470
AO-7 09 Feb 17:04:25 17:09:24 17° 269° (W) 17:14:25 29.400- 29.500
Cubesat XI-IV 09 Feb 17:09:33 17:14:31 42° 70° (ENE) 17:19:32 437.490
BEESAT 2 09 Feb 17:15:15 17:19:09 53° 117° (ESE) 17:23:06 435.950
GOMX 1 09 Feb 17:18:42 17:21:32 15° 64° (ENE) 17:24:18 467.674
STARS 09 Feb 17:38:06 17:39:23 11° 297° (WNW) 17:40:41 437.465
MOZHAYETS 4 09 Feb 17:45:08 17:47:35 14° 296° (WNW) 17:50:03
HO-68 09 Feb 17:45:33 17:48:48 14° 53° (NE) 17:52:04 435.675
BRITE-PL 09 Feb 17:46:27 17:51:58 51° 73° (ENE) 17:57:21 437.365/2234.400
RS-15 09 Feb 17:46:43 17:55:24 22° 21° (NNE) 18:04:14 29.354- 29.394
ISS 09 Feb 18:03:15 18:04:27 12° 344° (NNW) 18:05:39 145.825
Cosmos 2504 09 Feb 18:09:07 18:14:59 21° 281° (W) 18:20:36 435.465 / 435.565
LilacSat-2 09 Feb 18:19:12 18:22:44 36° 262° (W) 18:26:17 437.200
CUBESAT XI-V 09 Feb 18:23:27 18:28:01 50° 287° (WNW) 18:32:31 437.345
O/OREOS (USA 219) 09 Feb 18:28:08 18:32:37 53° 253° (WSW) 18:37:04 437.305
BEESAT 3 09 Feb 18:30:49 18:33:25 17° 313° (NW) 18:36:02 437.485
CUTE-I 09 Feb 18:36:19 18:40:56 30° 264° (W) 18:45:37 437.470
DOVE 4 09 Feb 18:36:31 18:41:19 41° 72° (ENE) 18:45:53 437.250
Cubesat XI-IV 09 Feb 18:50:38 18:54:44 22° 266° (W) 18:58:53 437.490
GOMX 1 09 Feb 18:53:36 18:59:02 72° 259° (WSW) 19:04:17 467.674
BEESAT 2 09 Feb 18:54:58 18:57:22 15° 314° (NW) 18:59:45 435.950
STRAND 1 09 Feb 18:58:31 19:03:25 43° 99° (E) 19:08:18 437.568
PCSat 09 Feb 18:58:34 19:02:32 20° 48° (NE) 19:06:29 145.827
CANX-2 09 Feb 19:01:11 19:04:50 29° 71° (ENE) 19:08:31 2200.000
AO-85 09 Feb 19:05:45 19:10:44 48° 54° (NE) 19:15:17 145.980
AIST 2 09 Feb 19:08:37 19:12:47 89° 299° (WNW) 19:16:59 435.215
Cosmos 2499 09 Feb 19:24:52 19:29:28 15° 61° (ENE) 19:33:52 435.465 / 435.565
BRITE-PL 09 Feb 19:26:23 19:30:36 21° 267° (W) 19:34:47 437.365/2234.400
HO-68 09 Feb 19:28:09 19:35:18 74° 72° (ENE) 19:42:29 435.675
CINEMA 3 09 Feb 19:32:30 19:37:01 52° 75° (ENE) 19:41:22 145.822/145.860
CUBEBUG 2 09 Feb 19:41:44 19:45:04 22° 69° (ENE) 19:48:21 437.445
UWE-3 09 Feb 19:43:32 19:46:14 16° 67° (ENE) 19:48:52 435.000/436.395/437.385
COMPASS 1 09 Feb 19:44:12 19:48:08 44° 73° (ENE) 19:52:06 437.405
Oscar 11 09 Feb 19:44:16 19:46:49 16° 66° (ENE) 19:49:22 145.826/435.025
CUTE 1.7 + AOD 2 09 Feb 19:51:13 19:55:25 80° 259° (W) 19:59:39 437.475
GONETS M04 09 Feb 19:51:27 20:00:07 58° 79° (ENE) 20:08:45
SEEDS 09 Feb 19:57:51 20:02:01 90° 210° (SSW) 20:06:14 437.485
RS-15 09 Feb 19:59:34 20:11:29 56° 50° (NE) 20:23:30 29.354- 29.394
PRISM 09 Feb 20:02:50 20:06:59 63° 101° (E) 20:11:06 437.425
AAUSAT CUBESAT 2 09 Feb 20:12:48 20:16:55 80° 77° (ENE) 20:21:05 437.432
DOVE 4 09 Feb 20:15:15 20:19:05 21° 266° (W) 20:22:48 437.250
ZACube-1 09 Feb 20:36:21 20:40:22 44° 73° (ENE) 20:44:21 437.345
CANX-2 09 Feb 20:37:33 20:40:42 21° 266° (W) 20:43:53 2200.000
STRAND 1 09 Feb 20:38:23 20:42:17 22° 295° (WNW) 20:46:10 437.568
PCSat 09 Feb 20:41:00 20:46:22 62° 246° (WSW) 20:51:41 145.827
FUNcube-1 09 Feb 20:45:23 20:49:29 54° 75° (ENE) 20:53:33 145.935
AO-85 09 Feb 20:47:18 20:50:47 19° 252° (WSW) 20:54:04 145.980
AIST 2 09 Feb 20:50:50 20:51:55 11° 318° (NW) 20:52:59 435.215
HUMSAT D 09 Feb 20:56:56 21:00:01 21° 69° (ENE) 21:03:06 437.325/437.525
CINEMA 3 09 Feb 21:12:04 21:14:23 14° 268° (W) 21:16:40 145.822/145.860
Cosmos 2499 09 Feb 21:15:36 21:24:02 84° 81° (E) 21:31:47 435.465 / 435.565
ISS 09 Feb 21:17:16 21:19:40 19° 25° (NNE) 21:22:03 145.825
CUBEBUG 2 09 Feb 21:17:47 21:21:34 29° 263° (W) 21:25:16 437.445
UWE-3 09 Feb 21:18:23 21:22:24 38° 262° (W) 21:26:21 435.000/436.395/437.385
Oscar 11 09 Feb 21:18:29 21:22:34 43° 261° (W) 21:26:41 145.826/435.025
HO-68 09 Feb 21:18:51 21:23:36 19° 268° (W) 21:28:24 435.675
COMPASS 1 09 Feb 21:21:54 21:23:56 13° 268° (W) 21:25:59 437.405
DELFI C3 09 Feb 21:27:36 21:31:31 62° 259° (W) 21:35:29 145.870
ESTCUBE 1 09 Feb 21:28:54 21:30:35 12° 63° (ENE) 21:32:15 437.505/2401.250
DX 1 09 Feb 21:32:24 21:34:09 12° 63° (ENE) 21:35:56 434.975-435.025
ANTELSAT 09 Feb 21:38:29 21:41:10 16° 93° (E) 21:43:50 437.575/2403.000
PRISM 09 Feb 21:40:48 21:41:45 11° 297° (WNW) 21:42:43 437.425
50 SAT 09 Feb 21:43:00 21:45:00 14° 67° (ENE) 21:47:01 437.505
TIGRISAT 09 Feb 21:45:08 21:48:06 18° 94° (E) 21:51:05 435.000
GONETS M04 09 Feb 21:49:12 21:56:20 29° 277° (W) 22:03:30
AIST 1 09 Feb 22:09:00 22:13:19 65° 265° (W) 22:17:34
RS-15 09 Feb 22:12:28 22:23:45 46° 252° (WSW) 22:35:07 29.354- 29.394
ZACube-1 09 Feb 22:14:47 22:16:53 13° 268° (W) 22:18:58 437.345
VELOX 1 09 Feb 22:24:05 22:28:16 41° 72° (ENE) 22:32:28 145.980
FUNcube-1 09 Feb 22:24:56 22:26:02 11° 269° (W) 22:27:08 145.935
UNISAT 6 09 Feb 22:28:42 22:33:00 59° 101° (E) 22:37:22 437.425
HUMSAT D 09 Feb 22:32:01 22:35:30 27° 264° (W) 22:39:01 437.325/437.525
AISAT 09 Feb 22:40:29 22:44:54 66° 75° (ENE) 22:49:21 437.250
POLYITAN 1 09 Feb 22:42:48 22:45:47 19° 94° (E) 22:48:46 437.675
QB50P2 09 Feb 22:43:22 22:46:28 20° 94° (E) 22:49:32 145.880/145.840
ISS 09 Feb 22:53:09 22:56:21 60° 223° (SW) 22:59:33 145.825
UKube-1 09 Feb 22:53:25 22:57:45 83° 78° (ENE) 23:02:07 .
CUBEBUG 1 09 Feb 23:00:10 23:04:36 86° 80° (E) 23:09:04 437.445
ESTCUBE 1 09 Feb 23:02:19 23:06:47 66° 258° (WSW) 23:11:20 437.505/2401.250
SPROUT 09 Feb 23:03:19 23:07:06 31° 71° (ENE) 23:10:54 437.525
DX 1 09 Feb 23:05:29 23:09:49 60° 259° (W) 23:14:10 434.975-435.025
Cosmos 2499 09 Feb 23:11:06 23:15:51 17° 283° (WNW) 23:20:26 435.465 / 435.565
POPSAT HIP 1 09 Feb 23:12:25 23:16:23 40° 99° (E) 23:20:20 437.405
TISAT 1 09 Feb 23:13:50 23:16:16 15° 66° (ENE) 23:18:41 437.305
ANTELSAT 09 Feb 23:13:56 23:18:02 41° 287° (WNW) 23:22:11 437.575/2403.000
50 SAT 09 Feb 23:15:20 23:18:43 34° 262° (W) 23:22:08 437.505
NANOSAT C BR1 09 Feb 23:17:04 23:21:07 44° 100° (E) 23:25:07 145.865
DUCHIFAT 1 09 Feb 23:18:30 23:22:31 44° 99° (E) 23:26:31 145.980
TIGRISAT 09 Feb 23:20:54 23:24:54 36° 288° (WNW) 23:28:56 435.000
QB50P1 09 Feb 23:24:56 23:29:05 58° 100° (E) 23:33:14 145.935-145.965
PHONESAT 2.4 09 Feb 23:44:50 23:46:41 14° 146° (SE) 23:48:32 2401.200-2431.200
VELOX 1 10 Feb 00:02:00 00:04:54 17° 267° (W) 00:07:48 145.980
UNISAT 6 10 Feb 00:07:32 00:09:14 12° 296° (WNW) 00:10:57 437.425
POLYITAN 1 10 Feb 00:17:54 00:21:39 32° 289° (WNW) 00:25:23 437.675
QB50P2 10 Feb 00:18:36 00:22:18 31° 289° (WNW) 00:26:00 145.880/145.840
BUGSAT 1 10 Feb 00:20:00 00:24:00 64° 285° (WNW) 00:27:58 437.445
AISAT 10 Feb 00:21:13 00:21:48 10° 270° (W) 00:22:23 437.250
CUSAT 1 10 Feb 00:27:55 00:33:47 23° 84° (E) 00:39:45 437.405
SPROUT 10 Feb 00:39:52 00:43:06 21° 266° (W) 00:46:21 437.525
Cosmos 2491 10 Feb 00:43:03 00:48:35 18° 64° (ENE) 00:54:06 435.465 / 435.565
Oscar 19 10 Feb 00:46:56 00:50:58 23° 95° (E) 00:54:59 437.125/150
TISAT 1 10 Feb 00:47:31 00:51:33 43° 261° (W) 00:55:36 437.305
POPSAT HIP 1 10 Feb 00:49:18 00:51:51 16° 294° (WNW) 00:54:23 437.405
SWISSCUBE 10 Feb 00:49:47 00:54:05 35° 70° (ENE) 00:58:26 437.505
NANOSAT C BR1 10 Feb 00:54:11 00:56:28 14° 295° (WNW) 00:58:44 145.865
DUCHIFAT 1 10 Feb 00:55:33 00:57:51 15° 294° (WNW) 01:00:08 145.980
DANDE 10 Feb 01:01:37 01:07:33 25° 82° (E) 01:13:55 436.750
QB50P1 10 Feb 01:02:58 01:04:22 11° 296° (WNW) 01:05:45 145.935-145.965
BEESAT 3 10 Feb 01:11:09 01:14:02 19° 48° (NE) 01:16:53 437.485
Gurwin Techsat 1B 10 Feb 01:19:10 01:22:40 18° 92° (E) 01:26:10 435.225
PHONESAT 2.4 10 Feb 01:20:17 01:23:33 64° 160° (SSE) 01:26:48 2401.200-2431.200
ITUPSAT 1 10 Feb 01:26:09 01:30:54 76° 75° (ENE) 01:35:42 437.325
YUBILEINY 10 Feb 01:34:03 01:38:20 15° 76° (ENE) 01:42:38 435.215
BEESAT 10 Feb 01:34:32 01:39:18 87° 257° (WSW) 01:44:06 436.000
BEESAT 2 10 Feb 01:35:24 01:38:32 22° 49° (NE) 01:41:39 435.950
KKS-1 10 Feb 01:37:56 01:40:03 13° 64° (ENE) 01:42:11 437.445
ITAMSAT 1 10 Feb 01:56:11 02:00:01 20° 94° (E) 02:03:49 435.822/435.867
JAS-2 10 Feb 02:02:29 02:08:09 82° 102° (ESE) 02:13:22 435.910
CUSAT 1 10 Feb 02:07:25 02:15:18 74° 280° (W) 02:23:24 437.405
Oscar 19 10 Feb 02:25:39 02:30:23 38° 290° (WNW) 02:35:05 437.125/150
SWISSCUBE 10 Feb 02:28:16 02:31:57 22° 265° (W) 02:35:39 437.505
Cosmos 2491 10 Feb 02:37:49 02:46:37 89° 265° (W) 02:55:25 435.465 / 435.565
DANDE 10 Feb 02:42:02 02:49:39 71° 281° (W) 02:58:11 436.750
BEESAT 3 10 Feb 02:48:15 02:51:55 37° 245° (WSW) 02:55:32 437.485
STARS 10 Feb 02:54:20 02:58:33 47° 73° (ENE) 03:02:47 437.465
PHONESAT 2.4 10 Feb 02:57:38 03:00:52 58° 356° (N) 03:04:07 2401.200-2431.200
Gurwin Techsat 1B 10 Feb 02:57:44 03:02:55 53° 288° (WNW) 03:08:04 435.225
Cosmos 2504 10 Feb 03:04:41 03:05:39 10° 73° (ENE) 03:06:38 435.465 / 435.565
MOZHAYETS 4 10 Feb 03:06:43 03:11:01 44° 72° (ENE) 03:15:22
